Погода в Гларусе

Швейцария     47°02′31″N   9°03′55″E
темп.,
°C
ветер,
м/с
пор.,
м/с
влажн.,
%
обл.,
%
осадки,
мм/ч
давл.,
гПа
погр.,
м
15 апреля, чт
чт1523:00−9юв119891 0.1 102918
02:00−10ю219681 0.3 102912
05:00−12ю219658 0.0 102911
08:00−8юв119392 0.1 102758
11:00−5ссв228299 0.3 1025731
14:00−3ссв328297 1.0 1024893
17:00−3св328086 0.8 1023822
20:00−8в119993 1.2 102516
16 апреля, пт
пт1623:00−8ююв229799 0.1 102648
02:00−10ююв339432 0.1 102623
05:00−11ю439223 0.0 102620
08:00−7ююв22822 0.0 102439
11:00−2св227234 0.0 1021684
14:00−1св228474 0.2 1019779
17:00−1св228992 0.9 1019548
20:00−4в119734 1.4 102119
17 апреля, сб
сб1723:00−8ю329529 0.0 102414
02:00−8ю339321 0.0 102319
05:00−9ю329327 0.0 102313
08:00−5вюв118740 0.0 102265
11:00−2ссв229198 0.0 1019611
14:00−1с2283100 0.1 1019707
17:00−2с229197 0.3 1019502
20:00−3с119997 0.9 102085
18 апреля, вс
вс1823:00−3с22100100 0.6 1021113
02:00−4ссв1195100 0.8 1021150
05:00−4ссв119798 0.2 102164
08:00−3с2296100 0.5 1021261
11:00−2с3294100 0.5 1021535
14:00−1с3297100 1.0 1021547
17:00−1с2294100 0.6 1021499
20:00−2ссз229998 1.3 1022156
19 апреля, пн
пн1923:00−2с119799 0.4 1023168
02:00−3ссв1199100 0.5 102282
05:00−3с1199100 0.3 102183
08:00−2ссв229897 0.5 1021257
11:00−1ссв229296 0.3 1019671
14:000с2293100 0.8 1017678
17:000с229898 0.9 1017376
20:00−1всв1196100 1.3 1017116